Regional Weather Roundup
Issued by NWS

Home | Current Version | Previous Version | Text Only | Print | Product List | Glossary On
Versions: 1 2 3 4 5 6 7 8 9 10 11 12 13 14 15 16 17 18 19 20 21 22 23 24 25 26 27 28 29 30 31 32 33 34 35 36 37 38 39 40 41 42 43 44 45 46 47 48 49 50
000
ASUS44 KLIX 302111
RWRLA
LOUISIANA WEATHER ROUNDUP
NATIONAL WEATHER SERVICE NEW ORLEANS LA
400 PM CDT TUE JUN 30 2015

NOTE: "FAIR" INDICATES FEW OR NO CLOUDS BELOW 12,000 FEET WITH NO
      SIGNIFICANT WEATHER AND/OR OBSTRUCTIONS TO VISIBILITY.
      SKY/WX - SKY CONDITION AND SIGNIFICANT WEATHER.
      TMP - AIR TEMPERATURE.    DP   - DEWPOINT TEMPERATURE.
      RH  - RELATIVE HUMIDITY.  PRES - PRESSURE.
      HX  - HEAT INDEX.         WCI  - WIND CHILL INDEX.

*  THESE STATIONS ARE NOT NWS OR FAA STATIONS AND ARE NOT UNDER
   NWS QUALITY CONTROL.

LAZ040-048-061>063-065-066-069-302200-
SOUTHEAST LOUISIANA

CITY           SKY/WX    TMP DP  RH WIND       PRES   REMARKS
N.O. AUDUBON     N/A     91  76  61 MISG        N/A  HX 102
N.O. INTL ARPT PTSUNNY   89  66  46 SW10      30.05S
N.O. LAKEFRONT PTSUNNY   91  70  49 S15       30.04F HX  96
N.O. DOWNTOWN* FAIR      93  70  46 S10       30.06S HX  99
RESERVE*       NOT AVBL
SLIDELL        LGT RAIN  87  77  72 W5        30.03S HX  99
BATON ROUGE    TSTM      71  68  90 E7        30.07F
BOOTHVILLE     MOSUNNY   88  74  63 SW7       30.07F HX  96
BELLE CHASSE   PTSUNNY   86  74  67 SW5       30.05F
BOGALUSA*        N/A     89  71  55 SW13      30.05S
GALLIANO*      CLEAR     91  73  56 SW10G16   30.06F HX  99
NEW ROADS*     MOCLDY   N/A N/A N/A CALM      30.10R
GONZALES*      MOCLDY    76  69  81 N10G22    30.08R
HAMMOND*       CLOUDY    77  72  83 NW20G25   30.10R THUNDER
HOUMA*         MOSUNNY   88  75  66 SW8       30.05F HX  97
PORT FOURCHON* MOCLDY    88  75  66 SW8G14    30.07S HX  97

$$

LAZ041-044-053-054-302200-
SOUTHWEST LOUISIANA

CITY           SKY/WX    TMP DP  RH WIND       PRES   REMARKS
LAKE CHARLES   LGT RAIN  74  71  91 CALM      30.04F
LAFAYETTE      CLOUDY    76  65  68 VRB5      30.07R THUNDER
PATTERSON      CLOUDY    84  73  70 SW8       30.07S
SALT POINT       N/A     86  76  71 SW8       30.04F HX  96
NEW IBERIA     CLOUDY    76  70  82 NW8       30.07R THUNDER
CHENAULT AIRPK LGT RAIN  73  72  94 SW7       30.05F

$$

LAZ027-028-302200-
CENTRAL LOUISIANA

CITY           SKY/WX    TMP DP  RH WIND       PRES   REMARKS
FORT POLK      CLOUDY    76  67  74 SW9       30.03F
ALEXANDRIA INT LGT RAIN  78  70  76 SW7       30.00R
ALEXANDRIA     PTSUNNY   84  69  60 SW14G23   30.03R THUNDER

$$

LAZ001-002-302200-
NORTHWEST LOUISIANA

CITY           SKY/WX    TMP DP  RH WIND       PRES   REMARKS
SHREVEPORT     MOSUNNY   92  73  53 S7        29.96F HX 100
BARKSDALE AFB  MOSUNNY   93  72  51 VRB7      29.95F HX 100
DTN SHREVEPORT SUNNY     91  71  51 S7        29.95F HX  97

$$

LAZ014-016-302200-
NORTHEAST LOUISIANA

CITY           SKY/WX    TMP DP  RH WIND       PRES   REMARKS
MONROE         MOSUNNY   94  74  52 SW10      29.96F HX 104
TALLULAH       MOSUNNY   90  75  61 SW6       29.97F HX 100

$$



USA.gov is the U.S. government's official web portal to all federal, state and local government web resources and services.